DW3478 Weather Reports


Display with metric or nautical units.
time (UTC)temp
F
wind
direction
speed
MPH
gust
MPH
rain 1hr
in
rain 24hr
in
rain mn
in
humidity
%
barometer
mb
20260506232306 55 43 4.0 9.0 0.00 0.00 0.00 66 1013.0
20260506231804 56 39 3.0 7.0 0.00 0.00 0.00 65 1013.1
20260506231305 56 27 2.0 5.0 0.00 0.00 0.00 65 1013.1
20260506225804 56 34 3.0 7.0 0.00 0.00 0.00 65 1013.2
20260506222306 56 41 5.0 9.0 0.00 0.00 0.00 65 1013.3
20260506221805 56 25 5.0 12.0 0.00 0.00 0.00 64 1013.4
20260506221304 56 30 5.0 12.0 0.00 0.00 0.00 64 1013.4
20260506220805 56 20 6.0 12.0 0.00 0.00 0.00 64 1013.3
20260506214305 56 31 5.0 12.0 0.00 0.00 0.00 67 1013.5
20260506213805 57 40 5.0 12.0 0.00 0.00 0.00 67 1013.5
20260506212805 57 21 4.0 10.0 0.00 0.00 0.00 67 1013.4
20260506212306 57 33 5.0 9.0 0.00 0.00 0.00 67 1013.5
20260506211804 57 38 5.0 7.0 0.00 0.00 0.00 67 1013.5
20260506211304 57 27 6.0 12.0 0.00 0.00 0.00 66 1013.4
20260506210805 57 31 3.0 10.0 0.00 0.00 0.00 67 1013.2
20260506204804 57 52 3.0 9.0 0.00 0.00 0.00 69 1013.1
20260506204304 57 41 6.0 12.0 0.00 0.00 0.00 69 1013.0
20260506200304 58 44 4.0 12.0 0.00 0.00 0.00 68 1012.8
20260506195804 58 46 6.0 12.0 0.00 0.00 0.00 67 1012.6
20260506195306 59 39 6.0 13.0 0.00 0.00 0.00 67 1012.7
20260506194804 59 49 6.0 17.0 0.00 0.00 0.00 67 1012.7
20260506194304 59 28 4.0 13.0 0.00 0.00 0.00 66 1012.5
20260506192805 60 28 5.0 14.0 0.00 0.00 0.00 66 1012.4
20260506192306 60 35 3.0 7.0 0.00 0.00 0.00 65 1012.2
20260506191804 60 8 2.0 5.0 0.00 0.00 0.00 67 1012.3
20260506191305 60 43 2.0 3.0 0.00 0.00 0.00 65 1012.4
20260506190804 60 48 3.0 7.0 0.00 0.00 0.00 66 1012.3
20260506190305 60 102 2.0 3.0 0.00 0.00 0.00 66 1012.3
20260506184305 61 52 4.0 12.0 0.00 0.00 0.00 64 1012.1
20260506183805 61 48 3.0 12.0 0.00 0.00 0.00 65 1011.9
20260506183304 61 40 5.0 12.0 0.00 0.00 0.00 63 1011.8
20260506181305 62 43 6.0 12.0 0.00 0.00 0.00 63 1011.9
20260506180805 62 39 6.0 14.0 0.00 0.00 0.00 63 1011.8
20260506174304 63 36 6.0 14.0 0.00 0.00 0.00 60 1011.9
20260506173805 63 43 7.0 14.0 0.00 0.00 0.00 59 1011.9
20260506173305 64 38 7.0 13.0 0.00 0.00 0.00 59 1012.1
20260506172805 64 50 7.0 18.0 0.00 0.00 0.00 57 1012.1
20260506171804 65 30 5.0 13.0 0.00 0.00 0.00 59 1011.9
20260506171305 65 37 6.0 15.0 0.00 0.00 0.00 59 1012.0
20260506170804 65 45 7.0 15.0 0.00 0.00 0.00 58 1011.9
20260506165305 65 42 9.0 18.0 0.00 0.00 0.00 59 1011.8
20260506164804 67 18 6.0 16.0 0.00 0.00 0.00 57 1011.7
20260506164304 66 35 3.0 13.0 0.00 0.00 0.00 59 1011.8
20260506163805 66 31 6.0 15.0 0.00 0.00 0.00 59 1012.2
20260506161305 68 234 2.0 7.0 0.00 0.00 0.00 54 1012.0
20260506160304 68 38 6.0 13.0 0.00 0.00 0.00 58 1012.3
20260506155804 67 45 5.0 13.0 0.00 0.00 0.00 61 1012.3
20260506155306 65 49 6.0 12.0 0.00 0.00 0.00 64 1012.1
20260506154804 65 44 5.0 12.0 0.00 0.00 0.00 64 1012.3
20260506154304 67 70 3.0 12.0 0.00 0.00 0.00 65 1012.4
20260506153805 66 143 5.0 9.0 0.00 0.00 0.00 69 1012.3
20260506153304 64 127 10.0 17.0 0.00 0.00 0.00 69 1012.4
20260506152804 62 115 3.0 6.0 0.00 0.00 0.00 74 1012.5
20260506151304 63 191 6.0 9.0 0.00 0.00 0.00 73 1012.5
20260506150805 63 188 5.0 10.0 0.00 0.00 0.00 71 1012.5
20260506150305 64 194 6.0 12.0 0.00 0.00 0.00 70 1012.5
20260506144805 66 172 6.0 12.0 0.00 0.00 0.00 70 1012.4
20260506144306 66 209 7.0 12.0 0.00 0.00 0.00 68 1012.4
20260506143805 66 176 5.0 9.0 0.00 0.00 0.00 71 1012.7
20260506142306 67 209 6.0 12.0 0.00 0.00 0.00 67 1012.7
20260506141305 67 165 5.0 10.0 0.00 0.00 0.00 67 1013.0
20260506140805 67 203 5.0 10.0 0.00 0.00 0.00 69 1012.9
20260506140306 67 202 6.0 12.0 0.00 0.00 0.00 70 1012.9
20260506135306 68 122 5.0 10.0 0.00 0.00 0.00 72 1013.1
20260506130305 62 191 5.0 7.0 0.00 0.00 0.00 83 1013.7
20260506123805 63 164 5.0 10.0 0.00 0.00 0.00 82 1014.1
20260506121805 67 170 4.0 10.0 0.00 0.00 0.00 75 1013.9
20260506120305 68 79 4.0 10.0 0.00 0.00 0.00 54 1013.8
20260506115806 69 47 5.0 12.0 0.00 0.00 0.00 53 1014.1
20260506115307 69 27 4.0 12.0 0.00 0.00 0.00 53 1014.1
20260506114805 68 79 3.0 12.0 0.00 0.00 0.00 56 1013.9
20260506114305 68 42 5.0 12.0 0.00 0.00 0.00 54 1014.2
20260506113806 67 41 5.0 15.0 0.00 0.00 0.00 59 1013.8
20260506112805 66 47 10.0 22.0 0.00 0.00 0.00 59 1013.9
20260506112306 66 26 9.0 20.0 0.00 0.00 0.00 59 1014.2
20260506111305 68 81 5.0 10.0 0.00 0.00 0.00 61 1014.4
20260506110805 67 62 5.0 16.0 0.00 0.00 0.00 64 1014.3
20260506110306 67 39 8.0 16.0 0.00 0.00 0.00 61 1014.3
20260506105305 66 39 8.0 20.0 0.00 0.00 0.00 60 1014.4
20260506103805 66 71 7.0 15.0 0.00 0.00 0.00 64 1014.1
20260506103305 65 50 7.0 15.0 0.00 0.00 0.00 61 1014.2
20260506102805 65 46 6.0 14.0 0.00 0.00 0.00 63 1014.3
20260506102306 65 44 9.0 15.0 0.00 0.00 0.00 63 1014.1
20260506101806 65 46 6.0 20.0 0.00 0.00 0.00 63 1014.1
20260506095805 63 41 7.0 20.0 0.00 0.00 0.00 67 1014.0
20260506094305 63 33 8.0 20.0 0.00 0.00 0.00 68 1014.0
20260506093806 63 66 7.0 15.0 0.00 0.00 0.00 68 1013.9
20260506091305 63 58 6.0 14.0 0.00 0.00 0.00 68 1013.7
20260506082305 60 91 7.0 16.0 0.00 0.00 0.00 72 1013.2
20260506080805 61 60 6.0 12.0 0.00 0.00 0.00 71 1013.1
20260506080305 61 52 7.0 17.0 0.00 0.00 0.00 72 1013.0
20260506070805 58 65 5.0 12.0 0.00 0.00 0.00 76 1012.8
20260506061305 58 99 9.0 14.0 0.00 0.00 0.00 76 1012.0
20260506060305 58 117 4.0 9.0 0.00 0.00 0.00 78 1012.1
20260506044805 58 98 5.0 10.0 0.00 0.00 0.00 86 1012.3
20260506043804 59 86 1.0 6.0 0.00 0.00 0.00 89 1012.3
20260506043306 59 293 2.0 6.0 0.00 0.00 0.00 89 1012.0
20260506042804 59 218 1.0 3.0 0.00 0.00 0.00 89 1012.3
20260506042305 59 16 1.0 3.0 0.00 0.00 0.00 89 1012.3
20260506041305 59 271 1.0 3.0 0.00 0.00 0.00 88 1012.2
20260506040805 59 267 1.0 3.0 0.00 0.00 0.00 88 1012.2
20260506035306 59 163 1.0 3.0 0.00 0.00 0.00 88 1012.1
20260506034805 59 225 5.0 7.0 0.00 0.00 0.00 88 1012.2
20260506034305 59 264 5.0 12.0 0.00 0.00 0.00 87 1012.3
20260506033805 59 282 5.0 9.0 0.00 0.00 0.00 88 1012.2
20260506032306 59 247 1.0 3.0 0.00 0.00 0.00 88 1012.4
20260506031805 59 244 3.0 6.0 0.00 0.00 0.00 88 1012.3
20260506030805 59 222 3.0 5.0 0.00 0.00 0.00 88 1012.3
20260506025804 59 207 2.0 5.0 0.00 0.00 0.00 88 1012.1
20260506025306 59 224 1.0 3.0 0.00 0.00 0.00 88 1012.3
20260506024804 59 166 1.0 3.0 0.00 0.00 0.00 88 1012.2
20260506023805 60 191 1.0 2.0 0.00 0.00 0.00 88 1012.2
20260506023304 60 271 0.0 1.0 0.00 0.00 0.00 88 1012.2
20260506022804 60 271 0.0 0.0 0.00 0.00 0.00 88 1012.4
20260506022306 60 260 1.0 3.0 0.00 0.00 0.00 87 1012.4
20260506021805 60 338 2.0 3.0 0.00 0.00 0.00 87 1012.3
20260506021305 60 223 2.0 3.0 0.00 0.00 0.00 87 1012.5
20260506020804 60 195 1.0 3.0 0.00 0.00 0.00 87 1012.5
20260506015306 60 217 1.0 3.0 0.00 0.00 0.00 87 1012.7
20260506014804 60 188 1.0 2.0 0.00 0.00 0.00 86 1012.8
20260506012307 60 229 0.0 3.0 0.00 0.00 0.00 86 1013.0
20260506011304 60 219 1.0 3.0 0.00 0.00 0.00 85 1013.1
20260506010805 60 259 0.0 3.0 0.00 0.00 0.00 84 1013.0
20260506010304 60 354 1.0 3.0 0.00 0.00 0.00 83 1013.1
20260506004805 60 307 2.0 5.0 0.00 0.00 0.00 81 1013.2
20260506004305 60 344 1.0 5.0 0.00 0.00 0.00 80 1013.1
20260506003805 59 224 1.0 3.0 0.00 0.00 0.00 78 1013.2
20260506002306 60 242 1.0 3.0 0.00 0.00 0.00 77 1013.1
20260505235804 60 249 0.0 1.0 0.00 0.00 0.00 78 1013.0
20260505232804 60 65 4.0 12.0 0.00 0.00 0.00 77 1013.1